�������l�o���
Date,Time,MP-1(��Sv/h),MP-2(��Sv/h),MP-3(��Sv/h),MP-4(��Sv/h),MP-5(��Sv/h),MP-6(��Sv/h),MP-7(��Sv/h),MP-8(��Sv/h),����,����(m/s),���J
2021/07/10,00:00,0.576,0.843,0.548,1.022,0.715,0.359,0.613,0.576,�k�k��,3.4,��
2021/07/10,00:10,0.577,0.842,0.549,1.024,0.715,0.359,0.613,0.576,�k�k��,3.6,��
2021/07/10,00:20,0.577,0.843,0.550,1.024,0.716,0.360,0.613,0.577,�k�k��,4.5,��
2021/07/10,00:30,0.577,0.846,0.549,1.025,0.717,0.359,0.614,0.575,�k�k��,4.1,��
2021/07/10,00:40,0.577,0.846,0.550,1.026,0.717,0.358,0.614,0.576,�k�k��,4.8,��
2021/07/10,00:50,0.579,0.844,0.548,1.026,0.717,0.359,0.613,0.576,�k�k��,5.3,��
2021/07/10,01:00,0.577,0.846,0.548,1.027,0.719,0.359,0.613,0.576,�k�k��,5.2,��
2021/07/10,01:10,0.578,0.847,0.550,1.029,0.717,0.358,0.614,0.576,�k�k��,5.5,��
2021/07/10,01:20,0.577,0.846,0.549,1.030,0.719,0.358,0.613,0.576,�k�k��,5.0,��
2021/07/10,01:30,0.579,0.846,0.549,1.030,0.718,0.360,0.613,0.576,�k�k��,4.6,��
2021/07/10,01:40,0.579,0.846,0.549,1.030,0.718,0.359,0.613,0.577,�k�k��,4.7,��
2021/07/10,01:50,0.576,0.846,0.550,1.029,0.718,0.360,0.614,0.577,�k�k��,5.0,�L
2021/07/10,02:00,0.579,0.848,0.551,1.033,0.720,0.360,0.614,0.578,�k�k��,5.2,�L
2021/07/10,02:10,0.581,0.848,0.550,1.032,0.720,0.359,0.616,0.577,�k�k��,5.5,�L
2021/07/10,02:20,0.579,0.846,0.550,1.033,0.721,0.359,0.614,0.578,�k�k��,5.7,�L
2021/07/10,02:30,0.579,0.844,0.552,1.033,0.718,0.360,0.615,0.577,�k�k��,5.4,��
2021/07/10,02:40,0.579,0.844,0.551,1.033,0.721,0.360,0.615,0.577,�k�k��,5.6,��
2021/07/10,02:50,0.581,0.846,0.550,1.033,0.720,0.360,0.616,0.578,�k�k��,5.2,��
2021/07/10,03:00,0.579,0.847,0.550,1.036,0.720,0.361,0.616,0.576,�k�k��,4.9,��
2021/07/10,03:10,0.579,0.846,0.549,1.034,0.720,0.360,0.616,0.578,�k�k��,4.8,��
2021/07/10,03:20,0.579,0.847,0.548,1.035,0.721,0.359,0.616,0.579,�k�k��,5.1,��
2021/07/10,03:30,0.580,0.847,0.551,1.036,0.721,0.360,0.617,0.579,�k,5.5,��
2021/07/10,03:40,0.580,0.848,0.552,1.035,0.723,0.362,0.616,0.580,�k,5.8,��
2021/07/10,03:50,0.580,0.846,0.552,1.035,0.721,0.359,0.618,0.578,�k,5.9,��
2021/07/10,04:00,0.580,0.847,0.552,1.036,0.722,0.361,0.616,0.578,�k,6.1,��
2021/07/10,04:10,0.581,0.847,0.552,1.035,0.722,0.360,0.618,0.580,�k,5.6,��
2021/07/10,04:20,0.581,0.848,0.549,1.033,0.721,0.360,0.619,0.579,�k,6.5,��
2021/07/10,04:30,0.579,0.847,0.550,1.037,0.722,0.360,0.618,0.578,�k�k��,6.4,��
2021/07/10,04:40,0.579,0.846,0.551,1.035,0.723,0.360,0.618,0.578,�k,5.9,��
2021/07/10,04:50,0.579,0.847,0.552,1.036,0.721,0.358,0.616,0.576,�k�k��,6.3,��
2021/07/10,05:00,0.577,0.847,0.550,1.039,0.723,0.360,0.617,0.579,�k�k��,6.1,�L
2021/07/10,05:10,0.581,0.848,0.551,1.037,0.722,0.361,0.619,0.579,�k�k��,6.3,�L
2021/07/10,05:20,0.581,0.848,0.553,1.036,0.723,0.360,0.619,0.578,�k,6.3,�L
2021/07/10,05:30,0.579,0.846,0.553,1.040,0.722,0.362,0.617,0.579,�k�k��,6.0,�L
2021/07/10,05:40,0.580,0.847,0.550,1.040,0.724,0.361,0.617,0.581,�k�k��,6.0,�L
2021/07/10,05:50,0.580,0.847,0.553,1.037,0.724,0.361,0.618,0.580,�k�k��,6.5,��
2021/07/10,06:00,0.579,0.847,0.552,1.037,0.722,0.361,0.617,0.580,�k�k��,7.1,�L
2021/07/10,06:10,0.581,0.844,0.551,1.037,0.724,0.362,0.616,0.578,�k�k��,7.0,�L
2021/07/10,06:20,0.581,0.847,0.553,1.037,0.723,0.362,0.616,0.580,�k�k��,5.9,�L
2021/07/10,06:30,0.581,0.848,0.550,1.040,0.722,0.361,0.618,0.580,�k�k��,5.7,�L
2021/07/10,06:40,0.581,0.847,0.552,1.038,0.723,0.362,0.617,0.579,�k�k��,6.3,��
2021/07/10,06:50,0.579,0.846,0.551,1.038,0.723,0.360,0.617,0.581,�k,5.1,��
2021/07/10,07:00,0.578,0.846,0.552,1.038,0.724,0.360,0.616,0.579,�k�k��,7.2,��
2021/07/10,07:10,0.579,0.847,0.551,1.040,0.725,0.360,0.617,0.580,�k�k��,7.5,��
2021/07/10,07:20,0.581,0.847,0.551,1.039,0.724,0.359,0.617,0.579,�k�k��,8.4,��
2021/07/10,07:30,0.579,0.849,0.551,1.041,0.723,0.360,0.618,0.579,�k�k��,7.9,��
2021/07/10,07:40,0.579,0.846,0.550,1.039,0.723,0.358,0.617,0.580,�k,5.2,��
2021/07/10,07:50,0.580,0.845,0.552,1.040,0.722,0.360,0.619,0.580,�k,5.4,��
2021/07/10,08:00,0.580,0.848,0.551,1.037,0.724,0.358,0.618,0.579,�k,5.6,��
2021/07/10,08:10,0.579,0.848,0.550,1.040,0.723,0.358,0.617,0.580,�k�k��,6.3,�L
2021/07/10,08:20,0.580,0.847,0.552,1.037,0.723,0.361,0.617,0.580,�k,6.5,��
2021/07/10,08:30,0.581,0.848,0.552,1.040,0.725,0.358,0.619,0.580,�k,6.1,��
2021/07/10,08:40,0.581,0.848,0.553,1.038,0.725,0.359,0.617,0.579,�k�k��,6.9,��
2021/07/10,08:50,0.581,0.851,0.552,1.039,0.725,0.359,0.617,0.579,�k,5.2,��
2021/07/10,09:00,0.580,0.850,0.553,1.041,0.726,0.360,0.617,0.580,�k�k��,6.1,��
2021/07/10,09:10,0.581,0.852,0.552,1.040,0.725,0.360,0.620,0.581,�k,6.2,��
2021/07/10,09:20,0.583,0.850,0.553,1.040,0.725,0.359,0.619,0.580,�k,5.4,��
2021/07/10,09:30,0.582,0.852,0.553,1.040,0.726,0.361,0.618,0.581,�k,5.8,��
2021/07/10,09:40,0.581,0.851,0.554,1.038,0.726,0.360,0.619,0.580,�k�k��,6.4,��
2021/07/10,09:50,0.581,0.852,0.553,1.040,0.727,0.359,0.617,0.580,�k�k��,7.2,��
2021/07/10,10:00,0.583,0.852,0.554,1.042,0.728,0.360,0.618,0.581,�k,7.3,��
2021/07/10,10:10,0.582,0.850,0.553,1.041,0.729,0.361,0.619,0.580,�k,7.4,�L
2021/07/10,10:20,0.584,0.853,0.552,1.041,0.728,0.359,0.619,0.582,�k�k��,9.0,��
2021/07/10,10:30,0.583,0.853,0.553,1.041,0.730,0.360,0.619,0.579,�k�k��,10.0,��
2021/07/10,10:40,0.582,0.855,0.552,1.045,0.729,0.359,0.621,0.582,�k�k��,9.6,��
2021/07/10,10:50,0.583,0.855,0.555,1.042,0.730,0.361,0.620,0.581,�k,10.5,��
2021/07/10,11:00,0.584,0.856,0.554,1.043,0.730,0.360,0.619,0.581,�k�k��,9.5,��
2021/07/10,11:10,0.582,0.854,0.554,1.042,0.730,0.361,0.619,0.581,�k,9.9,��
2021/07/10,11:20,0.586,0.854,0.555,1.042,0.731,0.361,0.620,0.581,�k,9.2,��
2021/07/10,11:30,0.584,0.857,0.555,1.042,0.729,0.360,0.620,0.580,�k,8.3,��
2021/07/10,11:40,0.584,0.858,0.555,1.044,0.730,0.361,0.621,0.581,�k,9.0,��
2021/07/10,11:50,0.584,0.858,0.555,1.045,0.733,0.362,0.620,0.582,�k,9.1,��
2021/07/10,12:00,0.586,0.858,0.556,1.041,0.732,0.361,0.621,0.581,�k,7.8,��
2021/07/10,12:10,0.585,0.857,0.557,1.044,0.734,0.361,0.622,0.581,�k,6.3,��
2021/07/10,12:20,0.586,0.857,0.557,1.044,0.732,0.360,0.620,0.582,�k,8.7,��
2021/07/10,12:30,0.584,0.859,0.556,1.044,0.731,0.362,0.621,0.583,�k,9.4,��
2021/07/10,12:40,0.586,0.857,0.558,1.044,0.735,0.360,0.622,0.582,�k,9.3,�L
2021/07/10,12:50,0.586,0.858,0.558,1.044,0.736,0.361,0.620,0.582,�k�k��,9.0,��
2021/07/10,13:00,0.584,0.860,0.557,1.044,0.734,0.361,0.622,0.581,�k�k��,8.5,��
2021/07/10,13:10,0.587,0.861,0.557,1.046,0.736,0.361,0.622,0.583,�k�k��,9.0,��
2021/07/10,13:20,0.587,0.859,0.556,1.047,0.734,0.359,0.621,0.582,�k�k��,8.2,��
2021/07/10,13:30,0.585,0.861,0.558,1.044,0.734,0.361,0.623,0.581,�k�k��,8.2,��
2021/07/10,13:40,0.587,0.859,0.555,1.046,0.736,0.361,0.622,0.582,�k�k��,7.8,��
2021/07/10,13:50,0.584,0.858,0.557,1.047,0.734,0.361,0.622,0.582,�k�k��,8.0,��
2021/07/10,14:00,0.587,0.858,0.557,1.047,0.737,0.362,0.621,0.584,�k,8.5,��
2021/07/10,14:10,0.586,0.859,0.557,1.047,0.735,0.361,0.622,0.583,�k,8.8,��
2021/07/10,14:20,0.586,0.861,0.558,1.047,0.735,0.360,0.621,0.582,�k,7.1,��
2021/07/10,14:30,0.587,0.860,0.559,1.049,0.736,0.362,0.621,0.581,�k,8.4,��
2021/07/10,14:40,0.586,0.858,0.557,1.050,0.736,0.361,0.621,0.582,�k,6.8,��
2021/07/10,14:50,0.585,0.861,0.558,1.050,0.735,0.361,0.623,0.583,�k,8.3,��
2021/07/10,15:00,0.588,0.862,0.558,1.048,0.736,0.361,0.621,0.581,�k,6.2,��
2021/07/10,15:10,0.588,0.861,0.556,1.049,0.736,0.361,0.622,0.583,�k,7.0,��
2021/07/10,15:20,0.587,0.863,0.558,1.049,0.737,0.362,0.622,0.583,�k,7.2,��
2021/07/10,15:30,0.589,0.861,0.557,1.051,0.737,0.361,0.622,0.583,�k,7.1,��
2021/07/10,15:40,0.586,0.860,0.558,1.052,0.736,0.361,0.621,0.584,�k,5.3,��
2021/07/10,15:50,0.588,0.861,0.558,1.052,0.737,0.360,0.622,0.583,�k,6.1,��
2021/07/10,16:00,0.586,0.863,0.557,1.051,0.739,0.362,0.623,0.582,�k,4.0,��
2021/07/10,16:10,0.587,0.861,0.557,1.048,0.737,0.361,0.623,0.583,�k,3.3,��
2021/07/10,16:20,0.587,0.863,0.557,1.055,0.738,0.362,0.623,0.582,�k,3.1,��
2021/07/10,16:30,0.588,0.862,0.558,1.053,0.736,0.361,0.621,0.582,�k,2.6,��
2021/07/10,16:40,0.588,0.862,0.559,1.054,0.738,0.362,0.621,0.583,�k�k��,2.0,��
2021/07/10,16:50,0.588,0.862,0.559,1.053,0.738,0.361,0.623,0.584,�k�k��,3.6,��
2021/07/10,17:00,0.588,0.862,0.559,1.051,0.738,0.362,0.621,0.583,�k,4.4,��
2021/07/10,17:10,0.588,0.864,0.558,1.051,0.739,0.362,0.623,0.582,�k,4.1,��
2021/07/10,17:20,0.587,0.864,0.560,1.050,0.740,0.361,0.622,0.583,�k�k��,4.0,��
2021/07/10,17:30,0.586,0.864,0.559,1.051,0.738,0.361,0.622,0.584,�k,3.3,��
2021/07/10,17:40,0.587,0.861,0.558,1.054,0.739,0.360,0.623,0.583,�k�k��,4.1,��
2021/07/10,17:50,0.588,0.862,0.558,1.051,0.738,0.360,0.622,0.584,�k�k��,3.2,��
2021/07/10,18:00,0.589,0.864,0.558,1.055,0.739,0.361,0.623,0.582,�k,2.9,��
2021/07/10,18:10,0.588,0.863,0.557,1.055,0.738,0.360,0.621,0.584,�k�k��,3.4,��
2021/07/10,18:20,0.587,0.862,0.560,1.054,0.741,0.361,0.623,0.583,�k�k��,2.6,��
2021/07/10,18:30,0.587,0.865,0.559,1.054,0.740,0.360,0.623,0.583,�k�k��,2.0,��
2021/07/10,18:40,0.586,0.864,0.559,1.052,0.739,0.362,0.623,0.583,�k��,2.0,��
2021/07/10,18:50,0.587,0.865,0.561,1.055,0.740,0.361,0.622,0.583,�k�k��,1.9,��
2021/07/10,19:00,0.589,0.866,0.560,1.053,0.741,0.360,0.622,0.585,�k��,2.0,��
2021/07/10,19:10,0.587,0.865,0.559,1.054,0.741,0.361,0.623,0.586,�k�k��,1.5,��
2021/07/10,19:20,0.586,0.866,0.560,1.055,0.742,0.362,0.623,0.585,�k�k��,1.4,��
2021/07/10,19:30,0.587,0.866,0.560,1.056,0.741,0.362,0.623,0.584,�k,0.9,��
2021/07/10,19:40,0.587,0.867,0.560,1.056,0.743,0.363,0.624,0.583,�k�k��,1.4,��
2021/07/10,19:50,0.587,0.866,0.561,1.054,0.741,0.361,0.623,0.584,�k�k��,0.9,��
2021/07/10,20:00,0.588,0.866,0.561,1.056,0.743,0.362,0.624,0.584,-,CALM,��
2021/07/10,20:10,0.588,0.868,0.562,1.054,0.741,0.362,0.623,0.586,�k��,0.6,��
2021/07/10,20:20,0.588,0.866,0.561,1.054,0.741,0.362,0.625,0.584,�k��,0.9,��
2021/07/10,20:30,0.590,0.868,0.562,1.054,0.741,0.362,0.623,0.585,���k��,1.2,��
2021/07/10,20:40,0.591,0.868,0.563,1.054,0.744,0.363,0.623,0.587,-,CALM,��
2021/07/10,20:50,0.589,0.867,0.562,1.056,0.742,0.363,0.623,0.587,��쓌,0.6,��
2021/07/10,21:00,0.589,0.868,0.561,1.054,0.744,0.362,0.624,0.585,-,CALM,��
2021/07/10,21:10,0.590,0.867,0.561,1.054,0.744,0.364,0.623,0.586,-,CALM,��
2021/07/10,21:20,0.591,0.867,0.562,1.055,0.743,0.363,0.625,0.587,��,0.8,��
2021/07/10,21:30,0.589,0.868,0.562,1.053,0.744,0.363,0.625,0.586,-,CALM,��
2021/07/10,21:40,0.590,0.867,0.562,1.055,0.745,0.362,0.625,0.586,��쓌,1.2,��
2021/07/10,21:50,0.590,0.869,0.564,1.056,0.744,0.363,0.624,0.586,-,CALM,�L
2021/07/10,22:00,0.591,0.867,0.561,1.056,0.743,0.362,0.623,0.586,�쓌,0.8,�L
2021/07/10,22:10,0.590,0.868,0.563,1.056,0.744,0.365,0.625,0.587,���쓌,1.5,�L
2021/07/10,22:20,0.592,0.867,0.563,1.054,0.743,0.364,0.624,0.586,�쓌,0.8,�L
2021/07/10,22:30,0.591,0.864,0.562,1.056,0.744,0.363,0.624,0.584,���쓌,0.8,�L
2021/07/10,22:40,0.589,0.865,0.563,1.053,0.741,0.363,0.624,0.586,-,CALM,�L
2021/07/10,22:50,0.588,0.865,0.562,1.056,0.741,0.362,0.622,0.586,�k��,0.8,�L
2021/07/10,23:00,0.590,0.866,0.562,1.056,0.744,0.364,0.624,0.586,-,CALM,�L
2021/07/10,23:10,0.589,0.868,0.562,1.054,0.741,0.362,0.624,0.586,��,1.2,�L
2021/07/10,23:20,0.591,0.867,0.561,1.054,0.744,0.364,0.623,0.585,��,1.5,�L
2021/07/10,23:30,0.590,0.865,0.562,1.055,0.741,0.363,0.624,0.586,��,2.0,�L
2021/07/10,23:40,0.590,0.869,0.560,1.056,0.743,0.364,0.625,0.584,��,1.2,�L
2021/07/10,23:50,0.587,0.867,0.562,1.057,0.741,0.362,0.623,0.586,��쓌,1.1,��
